Regional Weather Roundup
Issued by NWS

Home | Current Version | Previous Version | Text Only | Print | Product List | Glossary Off
Versions: 1 2 3 4 5 6 7 8 9 10 11 12 13 14 15 16 17 18 19 20 21 22 23 24 25 26 27 28 29 30 31 32 33 34 35 36 37 38 39 40 41 42 43 44 45 46 47 48 49 50

000
ASUS43 KOAX 241002
RWRNE

WEATHER ROUNDUP FOR NEBRASKA
NATIONAL WEATHER SERVICE OMAHA NE
500 AM CDT SAT JUN 24 2017

NOTES: SATELLITE DATA IS BEING USED TO AUGMENT CLOUD COVER ABOVE
       12000 FEET.
       "FAIR" INDICATES FEW OR NO CLOUDS BELOW 12,000 FEET WITH NO
       SIGNIFICANT WEATHER AND/OR OBSTRUCTIONS TO VISIBILITY.

  * THESE STATIONS DO NOT REPORT WEATHER SUCH AS RAIN...SNOW OR FOG.

NEZ001>004-019>022-054>056-241100-
NEBRASKA PANHANDLE

CITY           SKY/WX    TMP DP  RH WIND       PRES   REMARKS
SCOTTSBLUFF    CLOUDY    53  39  59 E3        30.28F
ALLIANCE       CLOUDY    50  43  77 W3        30.27F
CHADRON        CLOUDY    41  36  82 SW7       30.26F
GORDON         FAIR      44  35  72 W5        30.25S
KIMBALL        CLOUDY    53  42  67 E5        30.31F
SIDNEY         CLOUDY    54  38  54 E7        30.30F
$$

NEZ057>060-069>072-079>082-241100-
SOUTHWEST NEBRASKA

CITY           SKY/WX    TMP DP  RH WIND       PRES   REMARKS
NORTH PLATTE   CLOUDY    50  43  77 NW3       30.25F
IMPERIAL       CLOUDY    52  46  80 N3        30.26S
LEXINGTON      CLOUDY    51  47  84 NW5       30.24S
MCCOOK         CLEAR     50  44  80 CALM      30.24S
OGALLALA       CLOUDY    56  41  58 CALM      30.27S
$$

NEZ005>010-023>029-035>040-094-241100-
NORTH CENTRAL NEBRASKA

CITY           SKY/WX    TMP DP  RH WIND       PRES   REMARKS
VALENTINE      PTCLDY    42  30  62 W7        30.21F
AINSWORTH      CLEAR     44  38  80 W5        30.21F
BROKEN BOW     CLOUDY    45  41  86 CALM      30.22F
O`NEILL        CLEAR     45  39  79 W6        30.19F
ORD            PTCLDY    44  38  79 NW5       30.20S
THEDFORD       CLOUDY    45  37  71 CALM      30.24F
$$

NEZ041-046>049-061>064-073>077-083>087-241100-
SOUTH CENTRAL NEBRASKA

CITY           SKY/WX    TMP DP  RH WIND       PRES   REMARKS
GRAND ISLAND   CLEAR     49  43  80 W7        30.21R
HASTINGS       CLEAR     51  42  71 W3        30.22S
HEBRON         CLEAR     51  47  84 CALM      30.19S
HOLDREGE       CLEAR     51  43  74 NW5       30.22F
KEARNEY *      CLEAR     52  39  62 NW7       30.22F
$$

NEZ011>018-030>034-042>045-241100-
NORTHEAST NEBRASKA

CITY           SKY/WX    TMP DP  RH WIND       PRES   REMARKS
NORFOLK        CLEAR     46  38  73 CALM      30.17S
ALBION         CLEAR     41  37  84 CALM      30.19F
BLAIR          PTCLDY    53  43  68 CALM      30.14S
FREMONT        CLEAR     49  43  80 W3        30.16S
TEKAMAH        CLEAR     53  42  66 W7        30.13F
WAYNE          CLEAR     44  42  94 CALM      30.16S
$$

NEZ050>053-065>068-078-088>093-241100-
SOUTHEAST NEBRASKA

CITY           SKY/WX    TMP DP  RH WIND       PRES   REMARKS
LINCOLN        CLEAR     50  46  86 CALM      30.18R
OMAHA EPPLEY   PTCLDY    55  48  77 CALM      30.14S
BEATRICE       CLEAR     51  49  94 W5        30.17S
FALLS CITY     CLEAR     53  50  89 NW5       30.14R
NEBRASKA CITY  CLEAR     55  47  72 NW5       30.15S
PLATTSMOUTH    CLEAR     52  46  80 W5        30.15S
$$

NEZ044-045-051>053-067-241100-
OMAHA AREA

CITY           SKY/WX    TMP DP  RH WIND       PRES   REMARKS
OMAHA EPPLEY   PTCLDY    55  48  77 CALM      30.14S
BLAIR          PTCLDY    53  43  68 CALM      30.14S
FREMONT        CLEAR     49  43  80 W3        30.16S
OFFUTT AFB     CLEAR     49  44  82 NW5       30.13F
PLATTSMOUTH    CLEAR     52  46  80 W5        30.15S
WAHOO          FAIR      50  42  72 CALM      30.16R
$$



USA.gov is the U.S. government's official web portal to all federal, state and local government web resources and services.